www.pogodaiklimat.ru

Погода и климат >> Архив погоды >> Мадагаскар >> Antsiranana


ПОГОДА в Antsiranana

  • Прогноз погоды в Antsiranana
  • Монитор погоды в Antsiranana
  • Климат города

АРХИВ ПОГОДЫ в Antsiranana

Время (UTC), дата Ветер
(напр.,м/с)
 
Видим.   Явления Облачность Т
(С)
Тd
(С)
f
(%)
Тe
(С)
Тes
(С)
Комфортность P
(гПа)
Po
(гПа)
Тmin
(С)
Tmax
(С)
R
(мм)
R24
(мм)
S
(см)
09 11.08 ЮВ 13
{18}
40 км 3/3 600 м
[Cu hum]
+28.3 +16.0 47 +31 +31 душно 1020.0 1008.0
12 11.08 ЮВ 11
{16}
40 км 3/3 600 м
[Cu hum]
+27.0 +16.8 54 +31 +31 душно 1018.2 1006.2
15 11.08 ЮВ 12
{17}
30 км 1/1 600 м
[Cu Sc]
+25.0 +15.5 56 +28 +28 жарко 1018.8 1006.8 +29.3
18 11.08 ЮВ 11
{16}
30 км 1/1 600 м
[Cu Sc]
+24.0 +16.0 61 +27 +27 жарко 1019.5 1007.5 +29.3
00 12.08 ЮВ 11
{16}
30 км 1/1 600 м
[Cu Sc]
+23.4 +16.3 64 +28 +28 душно 1018.4 1006.4
03 12.08 ЮВ 11
{16}
30 км 1/1 600 м
[Cu Sc]
+23.0 +16.5 67 +28 +28 душно 1018.1 1006.1
06 12.08 ЮВ 13
{19}
40 км 3/3 600 м
[Cu Sc]
+27.2 +15.5 49 +30 +30 душно 1019.2 1007.2 +23.1 +29.3
09 12.08 ЮВ 12
{17}
40 км 3/3 600 м
[Cu hum]
+30.2 +13.3 36 +32 +32 жарко 1018.4 1006.5
12 12.08 ЮВ 13
{20}
40 км 3/3 600 м
[Cu Sc]
+28.6 +14.1 41 +31 +31 жарко 1017.1 1005.1
15 12.08 ЮВ 11
{17}
30 км 4/4 600 м
[Cu Sc]
+24.0 +17.7 68 +28 +28 душно 1017.8 1005.8 +31.0
18 12.08 ЮВ 12
{17}
30 км 1/1 600 м
[Cu Sc]
+23.4 +15.9 63 +28 +28 душно 1018.5 1006.5 +31.0
00 13.08 ЮВ 9 30 км 5/5 600 м
[Cu Sc]
+20.4 +17.8 85 +23 +23 комфорт 1017.9 1005.9
03 13.08 ЮВ 8 25 км осадки на расстоянии 9/9 600 м
[Cu Sc]
+20.6 +18.1 86 +24 +24 комфорт 1019.5 1007.4
06 13.08 ЮВ 9 30 км осадки на расстоянии {дождь} 6/6 300 м
[Cu Sc]
+21.6 +19.1 86 +27 +27 душно 1020.5 1008.4 +20.0 +31.0 4
09 13.08 ЮВ 9 40 км 5/5 600 м
[Cu Sc]
+27.6 +15.8 49 +31 +32 душно 1018.9 1006.9
12 13.08 ЮВ 11
{15}
40 км 5/5 600 м
[Cu Sc]
+26.8 +15.4 50 +30 +30 душно 1018.0 1006.0
15 13.08 ЮВ 12
{17}
30 км осадки на расстоянии 6/6 600 м
[Cu Sc]
+21.4 +18.2 82 +26 +26 душно 1018.7 1006.6 +28.8
18 13.08 ЮВ 11
{17}
30 км 1/1 600 м
[Cu Sc]
+21.4 +17.5 78 +25 +25 комфорт 1019.5 1007.4 +28.8
00 14.08 ЮВ 9 30 км 1/1 600 м
[Cu Sc]
+20.4 +16.5 78 +23 +23 комфорт 1018.3 1006.3
03 14.08 ЮВ 9 40 км 1/1 600 м
[Cu Sc]
+21.2 +15.2 69 +24 +24 комфорт 1018.7 1006.5
06 14.08 ЮВ 9 40 км 5/5 600 м
[Cu Sc]
+25.0 +16.3 58 +28 +29 жарко 1019.8 1007.7 +20.0 +28.8
09 14.08 ЮВ 8 40 км 5/5 600 м
[Cu Sc]
+27.5 +16.9 52 +31 +33 душно 1018.3 1006.3
12 14.08 ЮВ 10 40 км 1/1 600 м
[Cu Sc]
+28.0 +15.6 47 +31 +31 душно 1017.4 1005.4
15 14.08 ЮВ 7 30 км 4/4 500 м
[Cu Sc]
+24.0 +16.2 62 +27 +27 жарко 1018.3 1006.2 +28.5
18 14.08 ЮВ 7 30 км 8/8 600 м
[Cu Sc]
+22.5 +16.2 68 +27 +27 душно 1020.3 1008.2 +28.5
00 15.08 ЮВ 8 30 км 3/3 600 м
[Cu Sc]
+21.2 +15.2 69 +24 +24 комфорт 1019.4 1007.4
03 15.08 Ю 8 30 км 1/1 600 м
[Cu Sc]
+20.8 +15.7 73 +24 +24 комфорт 1019.1 1007.0
06 15.08 ЮВ 11
{17}
40 км 3/3 600 м
[Cu Sc]
+25.1 +15.6 56 +28 +28 жарко 1019.9 1008.0 +20.6 +28.5
09 15.08 ЮВ 12
{18}
40 км 3/3 600 м
[Cu Sc]
+28.0 +12.8 39 +29 +29 жарко 1018.5 1006.6
15 15.08 ЮВ 8 30 км 1/1 600 м
[Cu Sc]
+24.0 +15.8 60 +27 +27 жарко 1018.5 1006.6 +29.0
00 16.08 ЮВ 8 30 км 4/4 600 м
[Cu Sc]
+21.0 +16.1 74 +24 +24 комфорт 1018.8 1006.8
03 16.08 ЮВ 8 30 км 3/3 600 м
[Cu Sc]
+20.5 +16.7 79 +23 +23 комфорт 1019.3 1007.3 2
06 16.08 ЮВ 11
{16}
40 км 4/4 600 м
[Cu Sc]
+25.4 +15.6 55 +29 +29 душно 1019.9 1007.8 +20.0 +29.0 2
09 16.08 ЮВ 12
{16}
40 км 6/6 600 м
[Cu Sc]
+27.4 +15.8 49 +30 +30 жарко 1018.5 1006.5
12 16.08 ЮВ 11
{16}
40 км 5/5 600 м
[Cu Sc]
+27.0 +17.3 55 +31 +31 душно 1017.3 1005.3
15 16.08 ЮВ 9 30 км осадки на расстоянии 8/8 600 м
[Cu Sc]
+23.6 +17.2 67 +27 +27 жарко 1018.0 1005.9 +28.2
18 16.08 ЮВ 7 30 км осадки на расстоянии {дождь} 3/3 600 м
[Cu Sc]
+21.0 +17.8 82 +25 +25 комфорт 1019.1 1007.0 +28.2 0.6
00 17.08 ЮВ 7 30 км 1/1 1200 м
[Sc]
+20.4 +16.5 78 +23 +23 комфорт 1017.0 1005.0
03 17.08 ЮВ 8 40 км 3/1 600 м
[Cu Sc]
+20.0 +16.1 78 +22 +22 комфорт 1017.6 1005.5
06 17.08 ЮВ 6 40 км 8/8 600 м
[Cu Sc]
+24.5 +15.5 57 +27 +28 жарко 1019.2 1007.1 +20.0 +28.2 0.6
09 17.08 ЮВ 7 40 км 8/8 600 м
[Cu Sc]
+26.5 +16.0 52 +30 +31 душно 1017.9 1005.9
12 17.08 ЮВ 8 40 км 4/4 600 м
[Cu Sc]
+27.6 +14.4 44 +30 +31 жарко 1016.6 1004.4
15 17.08 ЮВ 9 30 км 1/1 600 м
[Cu Sc]
+24.0 +15.8 60 +27 +27 жарко 1017.2 1005.1 +29.0
18 17.08 ЮВ 8 30 км 1/1 600 м
[Cu Sc]
+23.0 +16.5 67 +28 +28 душно 1018.0 1006.0 +29.0

 

Местоположение метеостанции Antsiranana (Мадагаскар): широта -12.35 долгота 49.30 высота над уровнем моря 105 м.

В архиве по умолчанию представлена погода в Antsiranana за последнюю неделю. Архивные данные за месяц целиком и за предыдущие месяцы, начиная с января 2011 года, Вы можете получить, выбрав интересующий диапазон дат из раскрывающегося списка и нажав кнопку "Ввод!".


*Определитесь, кто Вы:
робот инопланетянин человек

Внимание! Время в таблицах - всемирное. Для получения местного времени необходимо прибавить поправку, которая в Antsiranana равна 3 ч.

Смотрите также архив погоды в соседних городах и на ближайших метеорологических станциях:

Погода в Fascene (Мадагаскар) (151 км)
Погода в Sambava (Мадагаскар) (234 км)
Погода в Glorieuses Island (Реюньон) (247 км)
Погода в Antalaha (Мадагаскар) (300 км)
Погода в Antsohihy (Мадагаскар) (316 км)
Погода в Dzaoudzi (Коморские Острова) (439 км)
Погода в Mahajanga (Мадагаскар) (487 км)
Погода в Nosy Boraha (Мадагаскар) (529 км)
Погода в Ambohitsilaozana (Мадагаскар) (594 км)
Погода в Toamasina (Мадагаскар) (641 км)

Пояснения к столбцам:

Ветер - указаны скорость ветра в м/с - средняя за 10 мин, порывы в срок и между сроками (в фигурных скобках) и направление, откуда дует ветер: С - северный, СВ - северо-восточный, В - восточный, ЮВ - юго-восточный, Ю - южный, ЮЗ - юго-западный, З - западный, СЗ - северо-западный.
Видимость - горизонтальная дальность видимости в метрах или километрах. При видимости от 1 до 10 км при отсутствии осадков обычно наблюдается дымка, при ухудшении видимости до 1 км и менее - туман. В сухую погоду видимость может ухудшаться дымом, пылью или мглою.
Явления - указаны атмосферные явления, наблюдавшиеся в срок или в последний час перед сроком; фигурными скобками обозначены явления, наблюдавшиеся между сроками (за 1-3 часа до срока); квадратными скобками обозначены град или гололедные отложения с указанием их диаметра в мм.
Облачность - указаны через наклонную черту общая и нижняя облачность в баллах и высота нижней границы облаков в метрах; квадратными скобками обозначены формы облаков: Ci - перистые, Cs - перисто-слоистые, Cc - перисто-кучевые, Ac - высококучевые, As - высокослоистые, Sc - слоисто-кучевые, Ns - слоисто-дождевые, Cu - кучевые, Cb - кучево-дождевые. Подробнее классификацию облаков см. в Атласе облаков (PDF).
T - Температура воздуха - температура, измеренная на высоте 2 м над землей.
Td - Температура точки росы - температура, при понижении до которой содержащийся в воздухе водяной пар достигнет насыщения.
f - Относительная влажность воздуха - влажноcть воздуха, измеренная на высоте 2 м над землей.
Te - Эффективная температура - температура, которую ощущает одетый по сезону человек в тени. Характеристика душности погоды. При расчете учитывается влияние влажности воздуха и скорости ветра на теплоощущения человека.
Tes - Эффективная температура на солнце - температура, которую ощущает человек, с поправкой на солнечный нагрев. Характеристика знойности погоды. Зависит от высоты солнца над горизонтом, облачности и скорости ветра. Ночью, в пасмурную погоду, а также при ветре 12 м/с и более поправка равна нулю.
P - Атмосферное давление - приведенное к уровню моря атмосферное давление.
Po - Атмосферное давление - измеренное на уровне метеостанции атмосферное давление.
Tmin - Минимальная температура - минимум температуры воздуха на высоте 2 м над землей.
Tmax - Максимальная температура - максимум температуры воздуха на высоте 2 м над землей.
R - Количество осадков - Количество выпавших осадков за период времени, мм. При наведении курсора мыши на число - период времени, за который выпало указанное количество осадков.
R24 - Количество осадков - Количество выпавших осадков за 24 часа, мм.
S - Снежный покров - Высота снежного покрова, см. При наведении курсора мыши на число - состояние снежного покрова и степень покрытия местности в баллах.